Imperial, NE

3:01 AM MDT on July 21, 2017 (GMT -0600)
Imperial Municipal

Weather History for KIML - March, 2014

Change the Weather History Date:

Friday, March 14, 2014

  Actual Average Record
Temperature  
Mean Temperature 47 °F 39 °F  
Max Temperature 64 °F 54 °F 81 °F (1935)
Min Temperature 30 °F 25 °F -8 °F (1925)
Degree Days  
Heating Degree Days 18 26  
Month to date heating degree days 387 386  
Cooling Degree Days 0 0  
Month to date cooling degree days 0 0  
Year to date cooling degree days 0 0  
Moisture  
Dew Point 22 °F    
Average Humidity 46    
Maximum Humidity 78    
Minimum Humidity 14    
Precipitation  
Precipitation 0.00 in 0.03 in 0.60 in (1912)
Sea Level Pressure  
Sea Level Pressure 29.95 in    
Wind  
Wind Speed 11 mph (West)    
Max Wind Speed 18 mph    
Max Gust Speed 28 mph    
Visibility 10 miles    
Events      
T = Trace of Precipitation, MM = Missing Value Source: NWS Daily Summary

Daily Weather History Graph

Daily Weather History Graph

Search for Another Location

Airport or City:

Trip Planner

Search our weather history database for the weather conditions in past years. The results will help you decide how hot, cold, wet, or windy it might be!

Date:

Astronomy

Mar. 14, 2014 Rise Set
Actual Time 6:59 AM MDT 6:52 PM MDT
Civil Twilight 6:32 AM MDT 7:19 PM MDT
Nautical Twilight 6:00 AM MDT 7:51 PM MDT
Astronomical Twilight 5:28 AM MDT 8:23 PM MDT
Moon 5:16 PM MDT (3/14) 5:41 AM MDT (3/14)
Length of Visible Light 12h 47m
Length of Day
11h 52m
Waxing Gibbous, 96% of the Moon is Illuminated
Mar 14
Waxing Gibbous
Mar 16
Full
Mar 23
Last Quarter
Mar 30
New
Apr 7
First Quarter

Hourly Weather History & Observations

Time (MDT) Temp. Windchill Dew Point Humidity Pressure Visibility Wind Dir Wind Speed Gust Speed Precip Events Conditions
12:53 AM 41.0 °F 33.9 °F 26.1 °F 55% 29.85 in 10.0 mi NNW 12.7 mph - N/A   Clear
1:53 AM 39.9 °F 32.9 °F 25.0 °F 55% 29.90 in 10.0 mi NNW 11.5 mph - N/A   Clear
2:53 AM 39.0 °F 31.8 °F 25.0 °F 57% 29.91 in 10.0 mi NNW 11.5 mph - N/A   Clear
3:53 AM 34.0 °F 26.6 °F 24.1 °F 67% 29.94 in 10.0 mi NW 9.2 mph - N/A   Clear
4:53 AM 33.1 °F 24.9 °F 24.1 °F 70% 29.96 in 10.0 mi NW 10.4 mph - N/A   Clear
5:53 AM 34.0 °F 26.0 °F 24.1 °F 67% 29.99 in 10.0 mi NW 10.4 mph - N/A   Clear
6:53 AM 30.9 °F 23.5 °F 24.1 °F 76% 30.02 in 10.0 mi WNW 8.1 mph - N/A   Clear
7:53 AM 30.9 °F 23.5 °F 24.1 °F 76% 30.05 in 10.0 mi WNW 8.1 mph - N/A   Clear
8:53 AM 39.0 °F 31.4 °F 27.0 °F 62% 30.06 in 10.0 mi NW 12.7 mph - N/A   Clear
9:53 AM 46.9 °F - 26.1 °F 44% 30.05 in 10.0 mi NNW 11.5 mph - N/A   Clear
10:53 AM 51.1 °F - 24.1 °F 35% 30.05 in 10.0 mi WNW 8.1 mph - N/A   Clear
11:53 AM 55.0 °F - 24.1 °F 30% 30.03 in 10.0 mi WNW 11.5 mph - N/A   Clear
12:53 PM 57.9 °F - 23.0 °F 26% 30.01 in 10.0 mi WSW 13.8 mph 19.6 mph N/A   Clear
1:53 PM 60.1 °F - 21.9 °F 23% 29.97 in 10.0 mi SW 12.7 mph 19.6 mph N/A   Clear
2:53 PM 62.1 °F - 18.0 °F 18% 29.93 in 10.0 mi WSW 9.2 mph 19.6 mph N/A   Clear
3:53 PM 63.0 °F - 16.0 °F 16% 29.92 in 10.0 mi WSW 15.0 mph 20.7 mph N/A   Clear
4:53 PM 63.0 °F - 14.0 °F 15% 29.90 in 10.0 mi West 10.4 mph 27.6 mph N/A   Clear
5:53 PM 62.1 °F - 15.1 °F 16% 29.88 in 10.0 mi WSW 8.1 mph - N/A   Clear
6:53 PM 55.0 °F - 19.0 °F 24% 29.90 in 10.0 mi North - - N/A   Clear
7:53 PM 48.0 °F - 21.0 °F 34% 29.91 in 10.0 mi South 6.9 mph - N/A   Clear
8:53 PM 46.9 °F - 21.9 °F 37% 29.90 in 10.0 mi SSW 8.1 mph - N/A   Clear
9:53 PM 46.9 °F - 21.9 °F 37% 29.88 in 10.0 mi SSW 13.8 mph - N/A   Clear
10:53 PM 45.0 °F 38.9 °F 21.0 °F 39% 29.87 in 10.0 mi SSW 12.7 mph - N/A   Clear
11:53 PM 39.9 °F 34.5 °F 21.9 °F 49% 29.85 in 10.0 mi SW 8.1 mph - N/A   Clear